sat.trackr.live / text

‹ back to catalog

STARLINK-5853

NORAD 56881 · 2023-083F

PAYLOAD ACTIVE UNKNOWN

§ Identity

Operator
Country
US
Launch date
2023-06-12
Launch site
AFETR
Launch vehicle
Mass (kg)
RCS (m²)

Purposes: comms

External: N2YO · Heavens-Above · Gunter

§ Orbital elements

Epoch: 2026-09-19T20:58:05.572704Z

Period
94.27 min
Inclination
43.0031°
Eccentricity
0.0002714
Mean motion
15.27585578 rev/d
Perigee alt
481.2 km
Apogee alt
484.9 km
Semi-major
6,861.2 km
B*
6.6169e-5
RAAN
68.9464°
Arg perigee
250.7636°
Mean anomaly
109.2923°
Rev number
18,132

§ Raw data

STARLINK-58531 56881U 23083F   26262.87367561  .00001559  00000+0  66169-4 0  99962 56881  43.0031  68.9464 0002714 250.7636 109.2923 15.27585578181325

JSON: /api/v1/satellites/56881 · /tle

For live sub-satellite position, see the globe view (requires WebGL).

§ Visibility from observer

Set your observer location to see the next 7 days of passes ≥ 10°. The values pass through the URL so the page stays shareable.

No JS? Fill the form by hand. The geolocation button needs JavaScript.